Weather in Khmelevka

Russia / Astrakhan Oblast     46°05′21″N   47°54′23″E
temp.,
°C
wind,
m/s
gust,
m/s
humid.,
%
clouds,
%
prec.,
mm/h
press.,
hPa
HPBL,
m
5 august, thu
thu501:00+27nne1138100 0.0 101116
04:00+27wnw2238100 0.0 101111
07:00+28n594298 0.0 1012309
10:00+34nne672975 0.0 10121074
13:00+39nne532134 0.0 10112578
16:00+39nne542090 0.0 10103327
19:00+22e101581100 5.3 1013358
22:00+26n485922 6.3 1012135
6 august, fri
fri601:00+24nne4124347 0.1 1012198
04:00+24nne494075 0.1 1012151
07:00+25ne49394 0.0 1012228
10:00+33ene55235 0.0 1012926
13:00+36ene33190 0.0 10111946
16:00+36se76220 0.0 10091565
19:00+32ese57290 0.0 1009408
22:00+27e35430 0.0 101073
7 august, sat
sat701:00+26ene47420 0.0 1009111
04:00+25ene514420 0.0 1009296
07:00+26ene614440 0.0 1009426
10:00+34ese911221 0.0 10091026
13:00+37ese99180 0.0 10091405
16:00+37e99196 0.0 10081251
19:00+33e812250 0.0 1008563
22:00+28e614320 0.0 1008281
8 august, sun
sun801:00+27e616415 0.0 1008312
04:00+27e514435 0.0 1008318
07:00+30ese716466 0.0 1008474
10:00+38se91319100 0.0 10081195
13:00+39se89185 0.0 10081217
16:00+39se791723 0.0 10081315
19:00+34se683047 0.0 1008479
22:00+28se47535 0.0 1009102
9 august, mon
mon901:00+27s336171 0.0 100937
04:00+26sse226310 0.0 100914
07:00+29w12535 0.0 100973
10:00+37nnw44255 0.0 10091068
13:00+41nw541986 0.0 10092539
16:00+41wnw531718 0.0 10082937
19:00+36s56305 0.0 1009369
22:00+29ssw365794 0.0 1010116